Location: Unspecified
(42.3650°N, 71.1030°W)
Time: 17:04:23
(UTC+00:00)

Tiros 1 - Pass Details

Date: 04 July 2024
Orbit: 624 x 656 km, 48.4° (Epoch: 13 July)

Event Time Altitude Azimuth Distance (km) Brightness Sun altitude
Rises 06:37:52 0° 292° (WNW) 2,906 10.5 -20.1°
Reaches altitude 10° 06:40:21 10° 283° (WNW) 1,999 9.5 -19.9°
Enters shadow 06:41:25 16° 276° (W) 1,641 9.0 -19.8°
Maximum altitude 06:44:27 33° 220° (SW) 1,061 - -19.6°
Drops below altitude 10° 06:48:34 10° 156° (SSE) 2,003 - -19.2°
Sets 06:51:04 0° 147° (SSE) 2,913 - -19.0°
